Flag for Germany Weather past 2 weeks in Hoyerswerda, Saxony, Germany

Now
61 °F

Partly cloudy.


Feels Like: 61 °F
Forecast: 55 / 80 °F
Wind: 1 mph from North

Location: Dresden-Klotzsche

Current Time: Aug 29, 2015 at 1:06:26 AM

Latest Report: Aug 29, 2015 at 12:20 AM


Visibility: N/A

Pressure: 30.18 "Hg

Humidity: 94%

Dew point: 59 °F

Location of HoyerswerdaLocation

Historic Weather in Hoyerswerda — Graph

°F

Hoyerswerda temperature yesterday

Maximum temperature yesterday: 75 °F (at 12:50 AM)
Minimum temperature yesterday: 59 °F (at 10:20 AM)
Average temperature yesterday: 64 °F

Past Weeks' High & Low Weather Summary

 TemperatureHumidityPressure
High95 °F (Aug 14, 2:50 PM)100% (Aug 16, 2:50 AM)30.30 "Hg (Aug 16, 2:50 AM)
Low50 °F (Aug 22, 5:50 AM)23% (Aug 14, 2:50 PM)29.68 "Hg (Aug 14, 8:20 PM)
Average67 °F71%29.98 "Hg
* Reported Aug 13 11:20 PM — Aug 28 11:50 PM, Hoyerswerda, Weather by CustomWeather, © 2015

Note: Actual official high and low records may vary slightly from our data, if they occured in-between our weather recording intervals... More about our weather records

Advertising

Hoyerswerda weather history for previous 24 hours

 ConditionsComfort  
Time TempWeatherWind HumidityBarometerVisibility
11:50 PM
Fri, Aug 28
63 °FPartly cloudy.1 mph94%30.18 "HgN/A
11:20 PM61 °FPassing clouds.1 mph94%30.18 "HgN/A
10:50 PM61 °FPassing clouds.1 mph94%30.18 "HgN/A
10:20 PM61 °FPassing clouds.2 mph100%30.18 "HgN/A
9:50 PM61 °FPassing clouds.2 mph94%30.15 "HgN/A
9:20 PM63 °FPassing clouds.5 mph94%30.15 "HgN/A
8:50 PM63 °FBroken clouds.2 mph94%30.15 "HgN/A
8:20 PM63 °FPartly sunny.2 mph94%30.15 "HgN/A
7:50 PM63 °FScattered clouds.2 mph94%30.12 "HgN/A
7:20 PM63 °FBroken clouds.2 mph94%30.12 "HgN/A
6:50 PM63 °FPartly sunny.2 mph94%30.12 "HgN/A
6:20 PM63 °FLight rain. Partly sunny.2 mph94%30.12 "HgN/A
5:50 PM63 °FLight rain. Partly sunny.2 mph94%30.12 "HgN/A
5:20 PM63 °FLight rain. Partly sunny.1 mph94%30.12 "HgN/A
4:50 PM63 °FBroken clouds.2 mph94%30.09 "HgN/A
4:20 PM63 °FDrizzle. Partly sunny.5 mph88%30.12 "Hg4 mi
3:50 PM63 °FPartly sunny.3 mph88%30.09 "HgN/A
3:20 PM63 °FBroken clouds.5 mph88%30.09 "HgN/A
2:50 PM63 °FLight rain. Broken clouds.3 mph88%30.09 "HgN/A
2:20 PM61 °FPartly sunny.2 mph94%30.09 "HgN/A
1:50 PM61 °FDrizzle. Partly sunny.5 mph94%30.09 "Hg6 mi
1:20 PM61 °FLight rain. Partly sunny.6 mph88%30.09 "HgN/A
12:50 PM59 °FBroken clouds.7 mph94%30.09 "HgN/A
12:20 PM59 °FDrizzle. Broken clouds.8 mph94%30.07 "HgN/A
11:50 AM59 °FBroken clouds.7 mph94%30.07 "HgN/A
11:20 AM59 °FBroken clouds.9 mph94%30.04 "HgN/A
10:50 AM59 °FLight rain. Broken clouds.9 mph94%30.04 "Hg6 mi
10:20 AM59 °FLight rain. Fog.10 mph100%30.01 "Hg2 mi
9:50 AM64 °FLight rain. Partly sunny.8 mph94%30.01 "HgN/A
9:20 AM66 °FLight rain. Mostly cloudy.8 mph88%29.98 "HgN/A
8:50 AM66 °FLight rain. Mostly cloudy.9 mph83%29.95 "HgN/A
8:20 AM66 °FBroken clouds.8 mph83%29.95 "HgN/A
7:50 AM64 °FBroken clouds.10 mph88%29.95 "HgN/A
7:20 AM64 °FBroken clouds.9 mph88%29.95 "HgN/A
6:50 AM64 °FLight rain. Partly cloudy.7 mph88%29.95 "HgN/A
5:50 AM64 °FPartly cloudy.5 mph83%29.95 "HgN/A
5:20 AM64 °FClear.2 mph83%29.92 "Hg10 mi
4:50 AM64 °FPassing clouds.3 mph83%29.92 "HgN/A
4:20 AM64 °FPassing clouds.5 mph83%29.92 "HgN/A
3:50 AM64 °FClear.2 mph83%29.89 "Hg10 mi
3:20 AM64 °FClear.5 mph83%29.89 "Hg10 mi
2:50 AM66 °FClear.7 mph78%29.89 "Hg10 mi
2:20 AM66 °FPassing clouds.7 mph78%29.86 "HgN/A
1:50 AM68 °FClear.10 mph73%29.86 "Hg10 mi
1:20 AM75 °FClear.3 mph44%29.86 "Hg10 mi
Weather by CustomWeather, © 2015

See weather overviewHow to use our weather pages